DLH379 EDDM-EDDH

Flight info

Callsign DLH379
Flight time N/A
Altitude 36000
Route INPUD2S INPUD Y102 UPALA M726 NARUS DCT ABGUS DCT DIRBO/N0350F230 T902 RARUP RARUP6A
Aircraft A20N/M-SDE2E3FGHIRWXY/LB1

Departure

Time 2026-05-05 19:06
Airport Munich Airport (EDDM)

Arrival

Time N/A
Airport Hamburg Helmut Schmidt Airport (EDDH)
Time Latitude Longitude Altitude Speed Heading
2026-05-05 18:35 48.35421 11.79751 1467 ft 0 kts 83°
2026-05-05 18:50 48.35419 11.79728 1460 ft 2 kts 83°
2026-05-05 18:51 48.35417 11.79704 1458 ft 2 kts 81°
2026-05-05 18:51 48.35413 11.79679 1457 ft 2 kts 76°
2026-05-05 18:51 48.35412 11.79663 1459 ft 2 kts 83°
2026-05-05 18:51 48.35409 11.79639 1461 ft 2 kts 81°
2026-05-05 18:52 48.35407 11.79614 1462 ft 2 kts 67°
2026-05-05 18:52 48.35394 11.79603 1459 ft 2 kts 356°
2026-05-05 18:52 48.35382 11.79604 1464 ft 1 kts 354°
2026-05-05 18:52 48.35381 11.79604 1464 ft 0 kts 354°
2026-05-05 18:54 48.35385 11.79603 1467 ft 2 kts 354°
2026-05-05 18:54 48.35413 11.79599 1467 ft 6 kts 354°
2026-05-05 18:54 48.35474 11.79589 1464 ft 11 kts 354°
2026-05-05 18:55 48.35569 11.79574 1467 ft 16 kts 354°
2026-05-05 18:55 48.35680 11.79554 1465 ft 13 kts 353°
2026-05-05 18:55 48.35782 11.79536 1467 ft 16 kts 353°
2026-05-05 18:55 48.35893 11.79515 1464 ft 14 kts 354°
2026-05-05 18:56 48.35949 11.79507 1467 ft 0 kts 354°
2026-05-05 18:58 48.35970 11.79503 1461 ft 6 kts 354°
2026-05-05 18:58 48.36026 11.79494 1461 ft 11 kts 354°
2026-05-05 18:58 48.36113 11.79480 1467 ft 14 kts 354°
2026-05-05 18:58 48.36192 11.79479 1463 ft 9 kts 20°
2026-05-05 18:59 48.36222 11.79576 1458 ft 13 kts 83°
2026-05-05 18:59 48.36236 11.79737 1459 ft 18 kts 82°
2026-05-05 18:59 48.36247 11.79948 1467 ft 22 kts 86°
2026-05-05 18:59 48.36271 11.80198 1465 ft 26 kts 81°
2026-05-05 19:00 48.36292 11.80487 1462 ft 29 kts 83°
2026-05-05 19:00 48.36317 11.80804 1464 ft 32 kts 83°
2026-05-05 19:00 48.36340 11.81114 1460 ft 31 kts 83°
2026-05-05 19:00 48.36366 11.81447 1460 ft 33 kts 83°
2026-05-05 19:01 48.36389 11.81758 1463 ft 24 kts 84°
2026-05-05 19:01 48.36390 11.81960 1460 ft 16 kts 98°
2026-05-05 19:01 48.36415 11.82012 1457 ft 4 kts 356°
2026-05-05 19:01 48.36464 11.82009 1466 ft 6 kts 357°
2026-05-05 19:02 48.36465 11.82009 1466 ft 0 kts 357°
2026-05-05 19:02 48.36468 11.82008 1461 ft 2 kts 353°
2026-05-05 19:02 48.36474 11.82007 1460 ft 0 kts 353°
2026-05-05 19:04 48.36490 11.82004 1463 ft 5 kts 353°
2026-05-05 19:04 48.36539 11.81995 1461 ft 10 kts 353°
2026-05-05 19:05 48.36621 11.81979 1466 ft 13 kts 347°
2026-05-05 19:05 48.36673 11.81911 1464 ft 9 kts 276°
2026-05-05 19:05 48.36672 11.81887 1461 ft 0 kts 262°
2026-05-05 19:05 48.36667 11.81835 1459 ft 25 kts 262°
2026-05-05 19:06 48.36619 11.81187 1465 ft 95 kts 263°
2026-05-05 19:06 48.36525 11.79923 1457 ft 146 kts 264°
2026-05-05 19:06 48.36418 11.78308 1834 ft 156 kts 265°
2026-05-05 19:06 48.36304 11.76651 2387 ft 164 kts 265°
2026-05-05 19:07 48.36160 11.74887 2858 ft 175 kts 264°
2026-05-05 19:07 48.35985 11.73047 3381 ft 181 kts 264°
2026-05-05 19:07 48.35781 11.71160 3905 ft 186 kts 262°
2026-05-05 19:07 48.35643 11.69226 4564 ft 188 kts 272°
2026-05-05 19:08 48.35814 11.67240 5222 ft 197 kts 284°
2026-05-05 19:08 48.36398 11.65300 5861 ft 217 kts 307°
2026-05-05 19:08 48.37706 11.63922 6420 ft 247 kts 338°
2026-05-05 19:08 48.39506 11.63525 6868 ft 277 kts 355°
2026-05-05 19:09 48.41475 11.63513 7411 ft 287 kts 356°
2026-05-05 19:09 48.43468 11.63387 8504 ft 287 kts 352°
2026-05-05 19:09 48.45470 11.63065 9261 ft 294 kts 349°
2026-05-05 19:09 48.47481 11.62586 9747 ft 298 kts 346°
2026-05-05 19:10 48.49523 11.62007 10664 ft 298 kts 345°
2026-05-05 19:10 48.51579 11.61396 11554 ft 305 kts 345°
2026-05-05 19:10 48.53677 11.60765 12431 ft 309 kts 345°
2026-05-05 19:10 48.54818 11.60423 12925 ft 312 kts 345°
2026-05-05 19:11 48.56680 11.59842 13678 ft 315 kts 342°
2026-05-05 19:11 48.58760 11.58779 14426 ft 318 kts 335°
2026-05-05 19:11 48.60892 11.57519 14730 ft 341 kts 335°
2026-05-05 19:12 48.63182 11.56183 14956 ft 364 kts 336°
2026-05-05 19:12 48.65603 11.54874 15514 ft 375 kts 343°
2026-05-05 19:12 48.68191 11.54171 16284 ft 380 kts 348°
2026-05-05 19:12 48.70006 11.53730 16792 ft 383 kts 348°
2026-05-05 19:13 48.70194 11.53685 16853 ft 384 kts 348°
2026-05-05 19:13 48.72851 11.53058 17589 ft 388 kts 349°
2026-05-05 19:13 48.75544 11.52443 18223 ft 395 kts 349°
2026-05-05 19:14 48.78282 11.51833 18865 ft 398 kts 349°
2026-05-05 19:14 48.81033 11.51226 19516 ft 402 kts 349°
2026-05-05 19:14 48.83817 11.50613 20139 ft 406 kts 349°
2026-05-05 19:14 48.86628 11.49993 20767 ft 410 kts 349°
2026-05-05 19:15 48.89505 11.49358 21400 ft 415 kts 349°
2026-05-05 19:15 48.92342 11.48731 21995 ft 419 kts 350°
2026-05-05 19:15 48.95239 11.48089 22624 ft 423 kts 350°
2026-05-05 19:15 48.98158 11.47439 23263 ft 426 kts 350°
2026-05-05 19:16 49.01106 11.46783 23772 ft 430 kts 350°
2026-05-05 19:16 49.04077 11.46122 24259 ft 434 kts 351°
2026-05-05 19:16 49.07078 11.45455 24731 ft 438 kts 351°
2026-05-05 19:16 49.10102 11.44781 25191 ft 442 kts 351°
2026-05-05 19:17 49.11807 11.44401 25441 ft 444 kts 351°
2026-05-05 19:17 49.12261 11.44300 25516 ft 444 kts 351°
2026-05-05 19:18 49.14445 11.43812 25840 ft 447 kts 351°
2026-05-05 19:18 49.19613 11.42657 26563 ft 453 kts 351°
2026-05-05 19:18 49.25087 11.41429 27308 ft 460 kts 351°
2026-05-05 19:19 49.28263 11.40717 27720 ft 463 kts 351°
2026-05-05 19:19 49.31461 11.39998 28118 ft 466 kts 351°
2026-05-05 19:19 49.32399 11.39787 28226 ft 467 kts 351°
2026-05-05 19:19 49.32670 11.39726 28260 ft 468 kts 351°
2026-05-05 19:20 49.35903 11.38999 28649 ft 471 kts 351°
2026-05-05 19:20 49.39157 11.38266 29013 ft 474 kts 351°
2026-05-05 19:20 49.42432 11.37526 29381 ft 476 kts 351°
2026-05-05 19:20 49.45723 11.36780 29791 ft 479 kts 351°
2026-05-05 19:21 49.48982 11.36043 30100 ft 482 kts 351°
2026-05-05 19:21 49.52306 11.35291 30432 ft 484 kts 351°
2026-05-05 19:21 49.55641 11.34535 30770 ft 486 kts 351°
2026-05-05 19:21 49.58991 11.33774 31138 ft 487 kts 351°
2026-05-05 19:22 49.62343 11.33011 31565 ft 486 kts 351°
2026-05-05 19:22 49.65688 11.32249 32025 ft 485 kts 351°
2026-05-05 19:22 49.69016 11.31488 32562 ft 482 kts 351°
2026-05-05 19:22 49.72332 11.30730 33001 ft 481 kts 351°
2026-05-05 19:23 49.75635 11.29975 33397 ft 480 kts 351°
2026-05-05 19:23 49.78937 11.29219 33780 ft 480 kts 351°
2026-05-05 19:23 49.82239 11.28462 34124 ft 479 kts 351°
2026-05-05 19:23 49.85532 11.27706 34463 ft 478 kts 351°
2026-05-05 19:24 49.88819 11.26949 34808 ft 476 kts 351°
2026-05-05 19:24 49.92089 11.26195 35189 ft 474 kts 351°
2026-05-05 19:24 49.95347 11.25444 35476 ft 474 kts 351°
2026-05-05 19:24 49.98610 11.24691 35715 ft 474 kts 351°
2026-05-05 19:25 50.05122 11.23188 35797 ft 472 kts 351°
2026-05-05 19:25 50.11690 11.22688 35791 ft 472 kts
2026-05-05 19:26 50.18245 11.22725 35794 ft 472 kts 360°
2026-05-05 19:26 50.24813 11.22745 35794 ft 472 kts 360°
2026-05-05 19:27 50.31382 11.22779 35790 ft 472 kts 360°
2026-05-05 19:27 50.37935 11.22530 35790 ft 471 kts 353°
2026-05-05 19:28 50.44463 11.21520 35784 ft 471 kts 354°
2026-05-05 19:28 50.50995 11.20552 35782 ft 471 kts 354°
2026-05-05 19:29 50.57532 11.19567 35777 ft 472 kts 354°
2026-05-05 19:29 50.64073 11.18575 35781 ft 472 kts 354°
2026-05-05 19:30 50.70623 11.17666 35787 ft 473 kts 355°
2026-05-05 19:30 50.77196 11.17031 35791 ft 473 kts 356°
2026-05-05 19:31 50.83775 11.16381 35786 ft 474 kts 355°
2026-05-05 19:31 50.90367 11.15695 35795 ft 475 kts 355°
2026-05-05 19:32 50.96962 11.14998 35799 ft 475 kts 355°
2026-05-05 19:32 51.03529 11.14304 35797 ft 476 kts 355°
2026-05-05 19:33 51.10147 11.13607 35795 ft 477 kts 355°
2026-05-05 19:33 51.16785 11.12902 35800 ft 478 kts 355°
2026-05-05 19:34 51.22306 11.12314 35806 ft 478 kts 355°
2026-05-05 19:35 51.32280 11.11250 35807 ft 479 kts 354°
2026-05-05 19:35 51.38944 11.10536 35814 ft 480 kts 354°
2026-05-05 19:36 51.45614 11.09818 35819 ft 480 kts 354°
2026-05-05 19:36 51.57183 11.08571 35821 ft 479 kts 354°
2026-05-05 19:37 51.68281 11.07365 35827 ft 479 kts 354°
2026-05-05 19:37 51.74934 11.06639 35825 ft 479 kts 354°
2026-05-05 19:38 51.81579 11.05915 35830 ft 477 kts 353°
2026-05-05 19:38 51.88192 11.05043 35829 ft 475 kts 349°
2026-05-05 19:39 51.94806 11.03611 35831 ft 476 kts 350°
2026-05-05 19:39 52.01377 11.02225 35849 ft 476 kts 349°
2026-05-05 19:40 52.07918 11.00835 35807 ft 472 kts 349°
2026-05-05 19:40 52.11180 11.00135 35571 ft 473 kts 349°
2026-05-05 19:40 52.14445 10.99433 35356 ft 472 kts 349°
2026-05-05 19:40 52.17686 10.98737 35780 ft 468 kts 349°
2026-05-05 19:41 52.20923 10.98040 36016 ft 470 kts 349°
2026-05-05 19:41 52.27420 10.96638 35812 ft 468 kts 349°
2026-05-05 19:41 52.30632 10.95946 35361 ft 464 kts 348°
2026-05-05 19:42 52.33843 10.95250 34650 ft 466 kts 349°
2026-05-05 19:42 52.37078 10.94544 33773 ft 471 kts 349°
2026-05-05 19:42 52.40335 10.93833 32838 ft 474 kts 349°
2026-05-05 19:42 52.43608 10.93121 32029 ft 475 kts 349°
2026-05-05 19:43 52.46890 10.92408 31215 ft 475 kts 349°
2026-05-05 19:43 52.50165 10.91695 30392 ft 476 kts 349°
2026-05-05 19:43 52.53438 10.90983 29779 ft 471 kts 349°
2026-05-05 19:43 52.56670 10.90279 29111 ft 466 kts 349°
2026-05-05 19:44 52.59872 10.89578 28326 ft 463 kts 349°
2026-05-05 19:44 52.63051 10.88879 27610 ft 458 kts 349°
2026-05-05 19:44 52.66178 10.88193 26938 ft 448 kts 349°
2026-05-05 19:44 52.69245 10.87518 26277 ft 443 kts 349°
2026-05-05 19:45 52.72265 10.86850 25643 ft 445 kts 349°
2026-05-05 19:45 52.75319 10.86173 25018 ft 439 kts 349°
2026-05-05 19:45 52.78316 10.85512 24439 ft 430 kts 349°
2026-05-05 19:45 52.81255 10.84862 23853 ft 425 kts 349°
2026-05-05 19:46 52.84185 10.84211 23246 ft 424 kts 349°
2026-05-05 19:46 52.87100 10.83601 22568 ft 420 kts 350°
2026-05-05 19:46 52.89980 10.83022 21899 ft 413 kts 350°
2026-05-05 19:46 52.92816 10.82455 21252 ft 408 kts 351°
2026-05-05 19:47 52.95620 10.81890 20618 ft 404 kts 351°
2026-05-05 19:47 52.98394 10.81326 20001 ft 399 kts 351°
2026-05-05 19:47 53.01138 10.80765 19396 ft 395 kts 351°
2026-05-05 19:47 53.03849 10.80209 18799 ft 391 kts 351°
2026-05-05 19:48 53.06545 10.79655 18220 ft 390 kts 352°
2026-05-05 19:48 53.09221 10.79106 17550 ft 384 kts 352°
2026-05-05 19:48 53.11851 10.78568 16893 ft 378 kts 352°
2026-05-05 19:48 53.14446 10.78036 16250 ft 375 kts 351°
2026-05-05 19:49 53.17028 10.77505 15618 ft 372 kts 351°
2026-05-05 19:49 53.19589 10.76976 15013 ft 370 kts 352°
2026-05-05 19:49 53.22138 10.76450 14410 ft 369 kts 351°
2026-05-05 19:49 53.24676 10.75926 13808 ft 366 kts 352°
2026-05-05 19:50 53.27184 10.75409 13171 ft 360 kts 352°
2026-05-05 19:50 53.29652 10.74898 12516 ft 355 kts 352°
2026-05-05 19:50 53.32088 10.74394 11869 ft 350 kts 351°
2026-05-05 19:50 53.34492 10.73896 11241 ft 346 kts 351°
2026-05-05 19:51 53.36868 10.73403 10622 ft 342 kts 351°
2026-05-05 19:51 53.39212 10.72916 10018 ft 338 kts 351°
2026-05-05 19:51 53.41535 10.72433 9416 ft 334 kts 351°
2026-05-05 19:51 53.43821 10.71956 8814 ft 329 kts 352°
2026-05-05 19:52 53.46081 10.71485 8219 ft 325 kts 352°
2026-05-05 19:52 53.48313 10.71018 7590 ft 322 kts 352°
2026-05-05 19:52 53.50539 10.70549 6978 ft 323 kts 353°
2026-05-05 19:52 53.52750 10.70086 6712 ft 313 kts 352°
2026-05-05 19:53 53.54860 10.69647 6575 ft 299 kts 352°
2026-05-05 19:53 53.56877 10.69226 6453 ft 285 kts 352°